Regional Weather Roundup
Issued by NWS

Home | Current Version | Previous Version | Text Only | Print | Product List | Glossary On
Versions: 1 2 3 4 5 6 7 8 9 10 11 12 13 14 15 16 17 18 19 20 21 22 23 24 25 26 27 28 29 30 31 32 33 34 35 36 37 38 39 40 41 42 43 44 45 46 47 48 49 50
000
ASHW40 PHFO 210933
RWRHI

WEATHER ROUNDUP FOR HAWAII
NATIONAL WEATHER SERVICE HONOLULU HI
1100 PM HST TUE FEB 20 2018

THIS IS AN AUTOMATED REPORT THAT HAS NOT BEEN QUALITY CONTROLLED.

NOTE..."FAIR" INDICATES FEW OR NO CLOUDS BELOW 12,000 FEET WITH NO
SIGNIFICANT WEATHER AND/OR OBSTRUCTIONS TO VISIBILITY.

* - THESE SITES REPORT LIMITED FIELDS
# - BUOY DATA PROVIDED BY PACIFIC ISLANDS OCEAN OBSERVING SYSTEM.

HIZ001>004-211000-
KAUAI-NIIHAU-

CITY           SKY/WX    TMP DP  RH WIND       PRES   REMARKS
LIHUE APT      CLOUDY    67  64  90 W7        30.01S
PORT ALLEN*      N/A     64 N/A N/A NE7         N/A
POIPU*           N/A     64 N/A N/A N2          N/A
PRINCEVILLE*     N/A     64 N/A N/A S2          N/A
KOKOLE POINT*  NOT AVBL
MOLOAA DAIRY*    N/A     64  63  94 CALM        N/A
WAIMEA HTS*    NOT AVBL
PUU OPAE*      NOT AVBL
PUU LUA*       NOT AVBL
MAKAHA RIDGE*    N/A     63  57  82 CALM        N/A
$$

HIZ005>011-211000-
OAHU-

CITY           SKY/WX    TMP DP  RH WIND       PRES   REMARKS
HONOLULU       MOCLDY    73  64  73 N5        29.99S
KALAELOA       MOCLDY    68  63  84 NE5       30.01S
KANEOHE MCB    CLOUDY    70  68  93 CALM      29.98S
WHEELER FIELD  FAIR      65  63  95 NW3       30.03S
BELLOWS*         N/A    N/A N/A N/A W2          N/A
KAHUKU*          N/A    N/A N/A N/A E1          N/A
WHEELER*       NOT AVBL
WAIANAE HARBOR NOT AVBL
DILLINGHAM*    NOT AVBL
KAHUKU TRN*      N/A     79  77  94 CALM        N/A
KAWAILOA*        N/A     64  61  88 E5          N/A
KII*             N/A     66  64  94 SE3         N/A
MAKUA RANGE*   NOT AVBL
OAHU FOREST NW NOT AVBL
SCHOFIELD BRK*   N/A     75  73  94 MISG        N/A
SCHOFIELD S*   NOT AVBL
WAIANAE VLY*   NOT AVBL
KUAOKALA*      NOT AVBL
HONOULIUULI*   NOT AVBL
MOKUOLOE IS*   NOT AVBL
PALEHUA*       NOT AVBL
WAIAWA PHB*    NOT AVBL
$$

HIZ012>013-211000-
MOLOKAI-

CITY           SKY/WX    TMP DP  RH WIND       PRES   REMARKS
MOLOKAI AIRPT  PTCLDY    69  65  86 N5        30.01S
KALAUPAPA      NOT AVBL
MAKAPULAPAI*     N/A     68  63  83 SE7         N/A
MOLOKAI 1*     NOT AVBL
PUU ALII*        N/A     68  63  85 NE1         N/A
$$

HIZ016-211000-
KAHOOLAWE-

CITY           SKY/WX    TMP DP  RH WIND       PRES   REMARKS
KAHOOLAWE*     NOT AVBL
HAKIOAWA*        N/A     69  69  99 MISG      30.41S
HONOKANAIA*    NOT AVBL
KANELOA*         N/A     68  66  94 NE9G17    30.05S
KEALIALALO*    NOT AVBL
LUA MAKIKA*    NOT AVBL
$$

HIZ014>015-211000-
LANAI-

CITY           SKY/WX    TMP DP  RH WIND       PRES   REMARKS
LANAI CITY     FAIR      64  61  90 E6        30.05S
LANAI 1*       NOT AVBL
$$

HIZ017>028-211000-
MAUI-

CITY           SKY/WX    TMP DP  RH WIND       PRES   REMARKS
KAHULUI        PTCLDY    68  67  96 CALM      30.00S
KAPALUA-W MAUI NOT AVBL
HANA AIRPORT   FOG       63  32  31 S2        30.03S VSB 3/4
HANA*            N/A     66 N/A N/A SW5         N/A
HALEAKALA SUMM   N/A     34  28  80 SW8         N/A  WCI  27
MAALAEA BAY*     N/A     68 N/A N/A NE7         N/A
HALEAKALA*     NOT AVBL
KAUPO GAP*     NOT AVBL
KULA 1*          N/A     46  37  71 E3          N/A
$$

HIZ023>026-211000-
BIG ISLAND OF HAWAII COAST AND LOWER SLOPES-

CITY           SKY/WX    TMP DP  RH WIND       PRES   REMARKS
KAILUA KONA    CLEAR     72  64  76 N7        29.96S
HILO           MOCLDY    69  64  84 SW5       30.00R
HONOKAA*         N/A     64 N/A N/A VRB1        N/A
KAWAIHAE MWT*    N/A     70 N/A N/A NE1         N/A
KAWAIHAE*        N/A     72 N/A N/A NE3       29.96S
SOUTH POINT*     N/A     68 N/A N/A N10         N/A
UPOLU AIRPORT* NOT AVBL
KAMUELA*       MOSUNNY   57  57 100 E3        30.09S
HAKALAU*         N/A     46  45  93 SW3         N/A
KALOKO-HONOKO*   N/A     68  63  83 NW3G9     29.96S
PALI 2*          N/A     61  61 100 SW5         N/A
KEALAKOMO*       N/A     73  68  83 N3          N/A
KAUPULEHU*     NOT AVBL
KAPAPALA*        N/A     61  60  98 N3          N/A
LOWER KAHUKU*    N/A     59  54  82 N2          N/A
PUHE CS*         N/A     70  63  78 NE2         N/A
PUHO CS*         N/A     70  65  83 E2          N/A
PTA KEAMUKU*     N/A     57  50  77 E8          N/A
WAIKOLOA*      NOT AVBL
$$

HIZ027>028-211000-
BIG ISLAND OF HAWAII INTERIOR AND SUMMMITS-

CITY           SKY/WX    TMP DP  RH WIND       PRES   REMARKS
BRADSHAW FIELD CLEAR     45  41  83 SE3       30.29S
MK VISITOR CEN   N/A     43  28  56 W3          N/A
MAUNA KEA*       N/A     21  19  93 SW63        N/A  WCI  -3
MAUNA LOA*       N/A     37  10  32 MISG        N/A
MAUNA LOA 1*   NOT AVBL
PTA KIPUKA*      N/A     50  46  87 NW3G9       N/A
PTA RANGE 17*    N/A     66  64  94 W5          N/A
PTA WEST*        N/A     52  50  93 SE8         N/A
NENE CABIN*      N/A     46  45  93 N3          N/A
AHUMOA*        NOT AVBL
PTA PORTABLE*  NOT AVBL
PUU MALI*        N/A     52 N/A N/A SE12        N/A
$$

HIC003-211000-
NORTHWEST ISLANDS-

CITY           SKY/WX    TMP DP  RH WIND       PRES   REMARKS
MIDWAY ISLAND  PTCLDY    68  61  77 SE10      30.11R
MIDWAY NOS*      N/A     68 N/A N/A MISG      30.09R
FRENCH FRIGATE NOT AVBL
$$

PHZ110>124-180-211000-
BUOY REPORTS

STATION/POSITION TIME  TEMP    WIND        PRES    WAVE   SWELL
                       AIR SEA DIR/SP/G            HT/PER HT/DIR
                 (UTC) (F)     (DEG/KT/KT) (MB)    (FT/S) (FT/D)
BUOY 51001       0910   77 78   80/ 12/ 16 1012.5
BUOY 51101       0850   71 74   10/  2/  4 1015.9S   8/17   8/320
BUOY 51100       NOT AVBL
BUOY 51002       0910   78 78   60/ 10/ 14 1014.0
BUOY 51003       0850   75 77   60/ 10/ 12 1014.6F   5/12   5/300
BUOY 51004       0910   76 78   90/ 12/ 16 1015.3
WAIMEA BAY#      NOT AVBL
MOKAPU POINT#    0904      75                N/A     7/ 9   3/ 70
LANAI#           NOT AVBL
BARBERS PT 2#    NOT AVBL
PAUWELA#         0900      76                N/A     9/ 9   3/ 70
HILO#            0857      76                N/A     8/ 9   3/ 70
KANEOHE BAY#     NOT AVBL
KANEOHE BAY 2#   NOT AVBL
HANALEI#         0852      75                N/A     7/10   3/320
KAHULUI HARBOR   0900   71 78  290/  4/  5 1015.6
HONOLULU HARBOR  0900   72 75   80/  2/  3 1015.3
PEARL HARBOR#    0900      76                N/A     2/ 8   2/170
KILO NALU        NOT AVBL
HILO HARBOR      0900   68 75  200/  5/  6 1015.3
MOKUOLOE         0836   69 76  210/  1/  2 1015.9S
NAWILIWILI       0900   66 77  250/  4/  5 1016.1
WHOTS BUOY       NOT AVBL
BUOY 51028       NOT AVBL
$$

......................KEY........................................
  SKY/WX - SKY CONDITIONS/PRESENT WEATHER
  TMP    - TEMPERATURE IN FAHRENHEIT
  DWPT   - DEWPOINT IN FAHRENHEIT
  RH     - RELATIVE HUMIDITY IN PERCENT
  WIND   - DIRECTION AND SPEED /MPH FOR ISLANDS...KTS FOR BUOYS/
  PRES   - MEAN SEA LEVEL PRESSURE IN INCHES OF HG
  VSB    - VISIBILITY IN MILES
  HX     - HEAT INDEX
  WCI    - WIND CHILL INDEX
  VRB    - VARIABLE WIND DIRECTION
  N/A    - NOT AVAILABLE




USA.gov is the U.S. government's official web portal to all federal, state and local government web resources and services.